| time (UTC) | temp C | wind direction | speed KPH | gust KPH | rain 1hr cm | rain 24hr cm | rain mn cm | humidity % | barometer mb |
| 20260502220247 | 15 | 114 | 6.4 | 11.3 | 0.00 | 0.00 | 0.00 | ||
| 20260502215844 | 15 | 114 | 6.4 | 9.7 | 0.00 | 0.00 | 0.00 | ||
| 20260502215443 | 15 | 111 | 8.0 | 11.3 | 0.00 | 0.00 | 0.00 | ||
| 20260502215042 | 14 | 106 | 6.4 | 8.0 | 0.00 | 0.00 | 0.00 | ||
| 20260502214640 | 14 | 111 | 4.8 | 8.0 | 0.00 | 0.00 | 0.00 | ||
| 20260502214239 | 14 | 111 | 4.8 | 6.4 | 0.00 | 0.00 | 0.00 | ||
| 20260502213836 | 15 | 98 | 6.4 | 9.7 | 0.00 | 0.00 | 0.00 | ||
| 20260502213435 | 14 | 111 | 8.0 | 9.7 | 0.00 | 0.00 | 0.00 | ||
| 20260502213034 | 14 | 111 | 6.4 | 9.7 | 0.00 | 0.00 | 0.00 | ||
| 20260502212632 | 13 | 111 | 6.4 | 8.0 | 0.00 | 0.00 | 0.00 | ||
| 20260502212223 | 13 | 111 | 4.8 | 6.4 | 0.00 | 0.00 | 0.00 | ||
| 20260502211822 | 13 | 122 | 4.8 | 4.8 | 0.00 | 0.00 | 0.00 | ||
| 20260502211421 | 13 | 135 | 1.6 | 4.8 | 0.00 | 0.00 | 0.00 | ||
| 20260502211020 | 13 | 135 | 4.8 | 6.4 | 0.00 | 0.00 | 0.00 | ||
| 20260502210617 | 13 | 135 | 4.8 | 4.8 | 0.00 | 0.00 | 0.00 | ||
| 20260502210216 | 13 | 135 | 4.8 | 6.4 | 0.00 | 0.00 | 0.00 | ||
| 20260502205814 | 13 | 135 | 3.2 | 6.4 | 0.00 | 0.00 | 0.00 | ||
| 20260502205413 | 14 | 135 | 3.2 | 4.8 | 0.00 | 0.00 | 0.00 | ||
| 20260502204609 | 13 | 135 | 3.2 | 4.8 | 0.00 | 0.00 | 0.00 | ||
| 20260502204201 | 13 | 135 | 3.2 | 4.8 | 0.00 | 0.00 | 0.00 | ||
| 20260502203759 | 13 | 135 | 1.6 | 4.8 | 0.00 | 0.00 | 0.00 | ||
| 20260502203358 | 14 | 135 | 4.8 | 6.4 | 0.00 | 0.00 | 0.00 | ||
| 20260502202956 | 14 | 135 | 1.6 | 3.2 | 0.00 | 0.00 | 0.00 | ||
| 20260502202554 | 14 | 135 | 4.8 | 6.4 | 0.00 | 0.00 | 0.00 | ||
| 20260502202153 | 14 | 157 | 3.2 | 4.8 | 0.00 | 0.00 | 0.00 | ||
| 20260502201751 | 14 | 157 | 3.2 | 4.8 | 0.00 | 0.00 | 0.00 | ||
| 20260502201348 | 15 | 157 | 3.2 | 4.8 | 0.00 | 0.00 | 0.00 | ||
| 20260502200947 | 14 | 157 | 3.2 | 4.8 | 0.00 | 0.00 | 0.00 | ||
| 20260502200545 | 15 | 192 | 6.4 | 11.3 | 0.00 | 0.00 | 0.00 | ||
| 20260502200137 | 15 | 111 | 6.4 | 6.4 | 0.00 | 0.00 | 0.00 | ||
| 20260502195734 | 15 | 111 | 6.4 | 8.0 | 0.00 | 0.00 | 0.00 | ||
| 20260502195333 | 15 | 111 | 4.8 | 6.4 | 0.00 | 0.00 | 0.00 | ||
| 20260502194530 | 15 | 136 | 4.8 | 4.8 | 0.00 | 0.00 | 0.00 | ||
| 20260502194128 | 15 | 157 | 3.2 | 4.8 | 0.00 | 0.00 | 0.00 | ||
| 20260502193726 | 15 | 180 | 3.2 | 3.2 | 0.00 | 0.00 | 0.00 | ||
| 20260502193325 | 16 | 120 | 3.2 | 4.8 | 0.00 | 0.00 | 0.00 | ||
| 20260502192924 | 16 | 69 | 4.8 | 9.7 | 0.00 | 0.00 | 0.00 | ||
| 20260502192522 | 16 | 56 | 6.4 | 11.3 | 0.00 | 0.00 | 0.00 | ||
| 20260502192113 | 17 | 62 | 6.4 | 11.3 | 0.00 | 0.00 | 0.00 | ||
| 20260502191711 | 17 | 62 | 8.0 | 12.9 | 0.00 | 0.00 | 0.00 | ||
| 20260502191310 | 17 | 61 | 9.7 | 12.9 | 0.00 | 0.00 | 0.00 | ||
| 20260502190909 | 17 | 58 | 8.0 | 12.9 | 0.00 | 0.00 | 0.00 | ||
| 20260502190506 | 17 | 45 | 8.0 | 12.9 | 0.00 | 0.00 | 0.00 | ||
| 20260502190105 | 17 | 50 | 9.7 | 12.9 | 0.00 | 0.00 | 0.00 | ||
| 20260502185703 | 17 | 42 | 11.3 | 14.5 | 0.00 | 0.00 | 0.00 | ||
| 20260502185305 | 17 | 47 | 11.3 | 14.5 | 0.00 | 0.00 | 0.00 | ||
| 20260502184900 | 17 | 48 | 11.3 | 14.5 | 0.00 | 0.00 | 0.00 | ||
| 20260502184458 | 18 | 45 | 12.9 | 14.5 | 0.00 | 0.00 | 0.00 | ||
| 20260502184051 | 18 | 44 | 12.9 | 16.1 | 0.00 | 0.00 | 0.00 | ||
| 20260502183649 | 18 | 42 | 9.7 | 14.5 | 0.00 | 0.00 | 0.00 | ||
| 20260502183247 | 18 | 35 | 9.7 | 12.9 | 0.00 | 0.00 | 0.00 | ||
| 20260502182846 | 18 | 40 | 9.7 | 12.9 | 0.00 | 0.00 | 0.00 | ||
| 20260502182444 | 18 | 37 | 8.0 | 12.9 | 0.00 | 0.00 | 0.00 | ||
| 20260502182042 | 18 | 22 | 9.7 | 12.9 | 0.00 | 0.00 | 0.00 | ||
| 20260502181640 | 18 | 21 | 9.7 | 11.3 | 0.00 | 0.00 | 0.00 | ||
| 20260502181238 | 18 | 20 | 9.7 | 12.9 | 0.00 | 0.00 | 0.00 | ||
| 20260502180838 | 18 | 36 | 6.4 | 9.7 | 0.00 | 0.00 | 0.00 | ||
| 20260502180435 | 19 | 40 | 8.0 | 14.5 | 0.00 | 0.00 | 0.00 | ||
| 20260502170357 | 21 | 75 | 8.0 | 12.9 | 0.00 | 0.00 | 0.00 | ||
| 20260502163941 | 22 | 74 | 9.7 | 14.5 | 0.00 | 0.00 | 0.00 | ||
| 20260502163539 | 22 | 72 | 9.7 | 16.1 | 0.00 | 0.00 | 0.00 | ||
| 20260502163137 | 23 | 71 | 8.0 | 14.5 | 0.00 | 0.00 | 0.00 | ||
| 20260502162736 | 23 | 25 | 4.8 | 11.3 | 0.00 | 0.00 | 0.00 | ||
| 20260502162334 | 23 | 35 | 8.0 | 9.7 | 0.00 | 0.00 | 0.00 | ||
| 20260502161933 | 24 | 48 | 6.4 | 8.0 | 0.00 | 0.00 | 0.00 | ||
| 20260502161530 | 25 | 18 | 3.2 | 9.7 | 0.00 | 0.00 | 0.00 | ||
| 20260502161129 | 24 | 27 | 8.0 | 14.5 | 0.00 | 0.00 | 0.00 | ||
| 20260502160728 | 25 | 55 | 4.8 | 8.0 | 0.00 | 0.00 | 0.00 | ||
| 20260502160326 | 23 | 40 | 6.4 | 14.5 | 0.00 | 0.00 | 0.00 | ||
| 20260502152305 | 22 | 52 | 8.0 | 12.9 | 0.00 | 0.00 | 0.00 | ||
| 20260502151854 | 22 | 23 | 8.0 | 14.5 | 0.00 | 0.00 | 0.00 | ||
| 20260502151453 | 22 | 33 | 6.4 | 12.9 | 0.00 | 0.00 | 0.00 | ||
| 20260502151052 | 22 | 54 | 12.9 | 20.9 | 0.00 | 0.00 | 0.00 | ||
| 20260502150649 | 22 | 38 | 8.0 | 14.5 | 0.00 | 0.00 | 0.00 | ||
| 20260502150248 | 22 | 39 | 11.3 | 16.1 | 0.00 | 0.00 | 0.00 | ||
| 20260502130541 | 23 | 74 | 4.8 | 16.1 | 0.00 | 0.00 | 0.00 | ||
| 20260502130139 | 23 | 48 | 3.2 | 8.0 | 0.00 | 0.00 | 0.00 | ||
| 20260502123723 | 22 | 26 | 8.0 | 11.3 | 0.00 | 0.00 | 0.00 | ||
| 20260502123321 | 22 | 70 | 4.8 | 16.1 | 0.00 | 0.00 | 0.00 | ||
| 20260502122919 | 22 | 77 | 8.0 | 11.3 | 0.00 | 0.00 | 0.00 | ||
| 20260502122518 | 22 | 87 | 6.4 | 14.5 | 0.00 | 0.00 | 0.00 | ||
| 20260502122116 | 22 | 63 | 11.3 | 17.7 | 0.00 | 0.00 | 0.00 | ||
| 20260502121715 | 22 | 23 | 11.3 | 17.7 | 0.00 | 0.00 | 0.00 | ||
| 20260502121312 | 22 | 9 | 14.5 | 19.3 | 0.00 | 0.00 | 0.00 | ||
| 20260502120911 | 22 | 28 | 6.4 | 16.1 | 0.00 | 0.00 | 0.00 | ||
| 20260502120510 | 22 | 79 | 8.0 | 9.7 | 0.00 | 0.00 | 0.00 | ||
| 20260502120108 | 22 | 15 | 8.0 | 17.7 | 0.00 | 0.00 | 0.00 | ||
| 20260502115659 | 22 | 9 | 6.4 | 9.7 | 0.00 | 0.00 | 0.00 | ||
| 20260502115257 | 22 | 11 | 12.9 | 19.3 | 0.00 | 0.00 | 0.00 | ||
| 20260502114856 | 21 | 353 | 6.4 | 14.5 | 0.00 | 0.00 | 0.00 | ||
| 20260502114455 | 22 | 19 | 11.3 | 17.7 | 0.00 | 0.00 | 0.00 | ||
| 20260502114052 | 22 | 2 | 4.8 | 17.7 | 0.00 | 0.00 | 0.00 | ||
| 20260502113651 | 22 | 23 | 9.7 | 17.7 | 0.00 | 0.00 | 0.00 | ||
| 20260502112848 | 21 | 345 | 8.0 | 12.9 | 0.00 | 0.00 | 0.00 | ||
| 20260502112447 | 22 | 42 | 9.7 | 16.1 | 0.00 | 0.00 | 0.00 | ||
| 20260502112044 | 22 | 55 | 8.0 | 14.5 | 0.00 | 0.00 | 0.00 | ||
| 20260502111636 | 22 | 354 | 8.0 | 12.9 | 0.00 | 0.00 | 0.00 | ||
| 20260502111235 | 21 | 332 | 12.9 | 17.7 | 0.00 | 0.00 | 0.00 | ||
| 20260502110834 | 21 | 350 | 6.4 | 14.5 | 0.00 | 0.00 | 0.00 | ||
| 20260502110432 | 21 | 1 | 11.3 | 17.7 | 0.00 | 0.00 | 0.00 | ||
| 20260502110030 | 21 | 336 | 6.4 | 12.9 | 0.00 | 0.00 | 0.00 | ||
| 20260502105227 | 21 | 343 | 9.7 | 14.5 | 0.00 | 0.00 | 0.00 | ||
| 20260502104825 | 21 | 4 | 6.4 | 12.9 | 0.00 | 0.00 | 0.00 | ||
| 20260502104424 | 21 | 343 | 6.4 | 11.3 | 0.00 | 0.00 | 0.00 | ||
| 20260502104022 | 21 | 17 | 9.7 | 16.1 | 0.00 | 0.00 | 0.00 | ||
| 20260502103614 | 21 | 359 | 6.4 | 12.9 | 0.00 | 0.00 | 0.00 | ||
| 20260502103211 | 21 | 42 | 3.2 | 8.0 | 0.00 | 0.00 | 0.00 | ||
| 20260502102810 | 21 | 10 | 6.4 | 11.3 | 0.00 | 0.00 | 0.00 | ||
| 20260502102409 | 21 | 8 | 9.7 | 17.7 | 0.00 | 0.00 | 0.00 | ||
| 20260502102007 | 21 | 356 | 6.4 | 14.5 | 0.00 | 0.00 | 0.00 | ||
| 20260502101606 | 20 | 328 | 6.4 | 12.9 | 0.00 | 0.00 | 0.00 | ||
| 20260502101203 | 21 | 31 | 3.2 | 9.7 | 0.00 | 0.00 | 0.00 | ||
| 20260502100802 | 20 | 73 | 16.1 | 20.9 | 0.00 | 0.00 | 0.00 | ||
| 20260502091526 | 20 | 82 | 12.9 | 20.9 | 0.00 | 0.00 | 0.00 | ||
| 20260502091124 | 20 | 55 | 12.9 | 19.3 | 0.00 | 0.00 | 0.00 | ||
| 20260502090723 | 20 | 18 | 8.0 | 16.1 | 0.00 | 0.00 | 0.00 | ||
| 20260502090321 | 20 | 180 | 1.6 | 6.4 | 0.00 | 0.00 | 0.00 | ||
| 20260502071417 | 17 | 225 | 0.0 | 3.2 | 0.00 | 0.00 | 0.00 | ||
| 20260502071015 | 18 | 202 | 1.6 | 4.8 | 0.00 | 0.00 | 0.00 | ||
| 20260502070613 | 20 | 189 | 1.6 | 6.4 | 0.00 | 0.00 | 0.00 | ||
| 20260502070212 | 21 | 157 | 1.6 | 4.8 | 0.00 | 0.00 | 0.00 | ||
| 20260502065810 | 18 | 146 | 3.2 | 6.4 | 0.00 | 0.00 | 0.00 | ||
| 20260502065409 | 17 | 135 | 1.6 | 4.8 | 0.00 | 0.00 | 0.00 | ||
| 20260502065007 | 17 | 135 | 0.0 | 1.6 | 0.00 | 0.00 | 0.00 | ||
| 20260502064605 | 17 | 135 | 1.6 | 4.8 | 0.00 | 0.00 | 0.00 | ||
| 20260502064204 | 18 | 135 | 1.6 | 3.2 | 0.00 | 0.00 | 0.00 | ||
| 20260502063802 | 18 | 135 | 3.2 | 4.8 | 0.00 | 0.00 | 0.00 | ||
| 20260502063354 | 17 | 135 | 0.0 | 3.2 | 0.00 | 0.00 | 0.00 | ||
| 20260502062951 | 17 | 135 | 0.0 | 0.0 | 0.00 | 0.00 | 0.00 | ||
| 20260502062550 | 18 | 135 | 0.0 | 3.2 | 0.00 | 0.00 | 0.00 | ||
| 20260502062149 | 17 | 135 | 0.0 | 4.8 | 0.00 | 0.00 | 0.00 | ||
| 20260502061748 | 18 | 135 | 0.0 | 3.2 | 0.00 | 0.00 | 0.00 | ||
| 20260502061345 | 17 | 135 | 0.0 | 1.6 | 0.00 | 0.00 | 0.00 | ||
| 20260502060944 | 17 | 135 | 1.6 | 3.2 | 0.00 | 0.00 | 0.00 | ||
| 20260502060543 | 16 | 135 | 0.0 | 3.2 | 0.00 | 0.00 | 0.00 | ||
| 20260502060142 | 16 | 135 | 3.2 | 4.8 | 0.00 | 0.00 | 0.00 | ||
| 20260502055738 | 16 | 135 | 1.6 | 3.2 | 0.00 | 0.00 | 0.00 | ||
| 20260502055330 | 15 | 135 | 0.0 | 3.2 | 0.00 | 0.00 | 0.00 | ||
| 20260502054929 | 16 | 135 | 0.0 | 3.2 | 0.00 | 0.00 | 0.00 | ||
| 20260502054528 | 15 | 135 | 1.6 | 3.2 | 0.00 | 0.00 | 0.00 | ||
| 20260502054127 | 15 | 135 | 1.6 | 3.2 | 0.00 | 0.00 | 0.00 | ||
| 20260502053724 | 15 | 135 | 1.6 | 3.2 | 0.00 | 0.00 | 0.00 | ||
| 20260502053323 | 14 | 135 | 0.0 | 3.2 | 0.00 | 0.00 | 0.00 | ||
| 20260502052921 | 14 | 135 | 0.0 | 3.2 | 0.00 | 0.00 | 0.00 | ||
| 20260502052520 | 14 | 135 | 1.6 | 3.2 | 0.00 | 0.00 | 0.00 | ||
| 20260502052118 | 13 | 135 | 0.0 | 1.6 | 0.00 | 0.00 | 0.00 | ||
| 20260502051716 | 13 | 135 | 1.6 | 6.4 | 0.00 | 0.00 | 0.00 | ||
| 20260502051308 | 12 | 135 | 1.6 | 4.8 | 0.00 | 0.00 | 0.00 | ||
| 20260502050906 | 12 | 135 | 3.2 | 8.0 | 0.00 | 0.00 | 0.00 | ||
| 20260502050504 | 12 | 135 | 4.8 | 6.4 | 0.00 | 0.00 | 0.00 | ||
| 20260502045701 | 12 | 135 | 0.0 | 3.2 | 0.00 | 0.00 | 0.00 | ||
| 20260502045300 | 11 | 135 | 0.0 | 0.0 | 0.00 | 0.00 | 0.00 | ||
| 20260502044857 | 11 | 135 | 0.0 | 1.6 | 0.00 | 0.00 | 0.00 | ||
| 20260502044456 | 11 | 135 | 3.2 | 4.8 | 0.00 | 0.00 | 0.00 | ||
| 20260502044055 | 11 | 135 | 0.0 | 3.2 | 0.00 | 0.00 | 0.00 | ||
| 20260502043653 | 11 | 135 | 1.6 | 3.2 | 0.00 | 0.00 | 0.00 | ||
| 20260502043245 | 10 | 135 | 0.0 | 4.8 | 0.00 | 0.00 | 0.00 | ||
| 20260502042842 | 10 | 135 | 3.2 | 6.4 | 0.00 | 0.00 | 0.00 | ||
| 20260502042441 | 11 | 136 | 4.8 | 8.0 | 0.00 | 0.00 | 0.00 | ||
| 20260502042041 | 10 | 157 | 3.2 | 6.4 | 0.00 | 0.00 | 0.00 | ||
| 20260502041639 | 10 | 139 | 3.2 | 9.7 | 0.00 | 0.00 | 0.00 | ||
| 20260502041237 | 10 | 153 | 3.2 | 6.4 | 0.00 | 0.00 | 0.00 | ||
| 20260502040835 | 9 | 157 | 1.6 | 3.2 | 0.00 | 0.00 | 0.00 | ||
| 20260502040434 | 10 | 157 | 3.2 | 8.0 | 0.00 | 0.00 | 0.00 | ||
| 20260502040033 | 9 | 169 | 4.8 | 8.0 | 0.00 | 0.00 | 0.00 | ||
| 20260502035630 | 8 | 161 | 4.8 | 9.7 | 0.00 | 0.00 | 0.00 | ||
| 20260502035222 | 8 | 157 | 4.8 | 8.0 | 0.00 | 0.00 | 0.00 | ||
| 20260502034820 | 8 | 157 | 4.8 | 8.0 | 0.00 | 0.00 | 0.00 | ||
| 20260502034419 | 8 | 157 | 4.8 | 6.4 | 0.00 | 0.00 | 0.00 | ||
| 20260502034017 | 8 | 157 | 6.4 | 9.7 | 0.00 | 0.00 | 0.00 | ||
| 20260502033615 | 8 | 157 | 4.8 | 6.4 | 0.00 | 0.00 | 0.00 | ||
| 20260502033214 | 7 | 157 | 3.2 | 6.4 | 0.00 | 0.00 | 0.00 | ||
| 20260502032812 | 7 | 157 | 4.8 | 6.4 | 0.00 | 0.00 | 0.00 | ||
| 20260502032411 | 8 | 157 | 1.6 | 4.8 | 0.00 | 0.00 | 0.00 | ||
| 20260502032009 | 8 | 157 | 3.2 | 6.4 | 0.00 | 0.00 | 0.00 | ||
| 20260502031607 | 8 | 157 | 4.8 | 11.3 | 0.00 | 0.00 | 0.00 | ||
| 20260502031159 | 8 | 157 | 4.8 | 8.0 | 0.00 | 0.00 | 0.00 | ||
| 20260502030757 | 8 | 157 | 4.8 | 8.0 | 0.00 | 0.00 | 0.00 | ||
| 20260502030355 | 7 | 157 | 4.8 | 8.0 | 0.00 | 0.00 | 0.00 | ||
| 20260502025553 | 8 | 157 | 3.2 | 6.4 | 0.00 | 0.00 | 0.00 | ||
| 20260502025152 | 8 | 157 | 3.2 | 6.4 | 0.00 | 0.00 | 0.00 | ||
| 20260502024748 | 7 | 157 | 1.6 | 4.8 | 0.00 | 0.00 | 0.00 | ||
| 20260502024347 | 8 | 157 | 3.2 | 4.8 | 0.00 | 0.00 | 0.00 | ||
| 20260502023946 | 8 | 157 | 4.8 | 6.4 | 0.00 | 0.00 | 0.00 | ||
| 20260502023544 | 8 | 157 | 4.8 | 8.0 | 0.00 | 0.00 | 0.00 | ||
| 20260502023135 | 9 | 140 | 3.2 | 8.0 | 0.00 | 0.00 | 0.00 | ||
| 20260502022733 | 9 | 157 | 6.4 | 9.7 | 0.00 | 0.00 | 0.00 | ||
| 20260502022332 | 8 | 157 | 3.2 | 8.0 | 0.00 | 0.00 | 0.00 | ||
| 20260502021931 | 8 | 157 | 3.2 | 4.8 | 0.00 | 0.00 | 0.00 | ||
| 20260502021529 | 8 | 157 | 1.6 | 4.8 | 0.00 | 0.00 | 0.00 | ||
| 20260502021126 | 8 | 157 | 4.8 | 8.0 | 0.00 | 0.00 | 0.00 | ||
| 20260502020724 | 8 | 157 | 3.2 | 9.7 | 0.00 | 0.00 | 0.00 | ||
| 20260502020323 | 8 | 157 | 3.2 | 6.4 | 0.00 | 0.00 | 0.00 | ||
| 20260502015922 | 8 | 157 | 1.6 | 6.4 | 0.00 | 0.00 | 0.00 | ||
| 20260502015519 | 9 | 157 | 4.8 | 6.4 | 0.00 | 0.00 | 0.00 | ||
| 20260502015111 | 9 | 136 | 4.8 | 9.7 | 0.00 | 0.00 | 0.00 | ||
| 20260502014308 | 10 | 135 | 3.2 | 6.4 | 0.00 | 0.00 | 0.00 | ||
| 20260502013906 | 10 | 135 | 3.2 | 6.4 | 0.00 | 0.00 | 0.00 | ||
| 20260502013504 | 10 | 135 | 4.8 | 8.0 | 0.00 | 0.00 | 0.00 | ||
| 20260502013103 | 10 | 135 | 4.8 | 8.0 | 0.00 | 0.00 | 0.00 | ||
| 20260502012701 | 10 | 135 | 4.8 | 6.4 | 0.00 | 0.00 | 0.00 | ||
| 20260502012259 | 9 | 135 | 3.2 | 8.0 | 0.00 | 0.00 | 0.00 | ||
| 20260502011858 | 9 | 135 | 3.2 | 4.8 | 0.00 | 0.00 | 0.00 | ||
| 20260502011456 | 8 | 135 | 3.2 | 3.2 | 0.00 | 0.00 | 0.00 | ||
| 20260502011048 | 8 | 135 | 3.2 | 6.4 | 0.00 | 0.00 | 0.00 | ||
| 20260502010646 | 8 | 143 | 3.2 | 6.4 | 0.00 | 0.00 | 0.00 | ||
| 20260502010244 | 8 | 157 | 3.2 | 3.2 | 0.00 | 0.00 | 0.00 | ||
| 20260502005843 | 8 | 157 | 1.6 | 3.2 | 0.00 | 0.00 | 0.00 | ||
| 20260502005441 | 9 | 157 | 1.6 | 4.8 | 0.00 | 0.00 | 0.00 | ||
| 20260502005040 | 9 | 157 | 1.6 | 3.2 | 0.00 | 0.00 | 0.00 | ||
| 20260502004637 | 10 | 157 | 1.6 | 6.4 | 0.00 | 0.00 | 0.00 | ||
| 20260502004236 | 9 | 157 | 1.6 | 3.2 | 0.00 | 0.00 | 0.00 | ||
| 20260502003835 | 9 | 157 | 1.6 | 3.2 | 0.00 | 0.00 | 0.00 | ||
| 20260502003433 | 9 | 157 | 1.6 | 4.8 | 0.00 | 0.00 | 0.00 | ||
| 20260502003024 | 10 | 157 | 3.2 | 4.8 | 0.00 | 0.00 | 0.00 | ||
| 20260502002622 | 10 | 157 | 4.8 | 8.0 | 0.00 | 0.00 | 0.00 | ||
| 20260502002221 | 10 | 157 | 4.8 | 8.0 | 0.00 | 0.00 | 0.00 | ||
| 20260502001820 | 11 | 172 | 3.2 | 6.4 | 0.00 | 0.00 | 0.00 | ||
| 20260502001417 | 10 | 164 | 3.2 | 6.4 | 0.00 | 0.00 | 0.00 | ||
| 20260502001017 | 10 | 135 | 3.2 | 6.4 | 0.00 | 0.00 | 0.00 | ||
| 20260502000615 | 10 | 135 | 1.6 | 3.2 | 0.00 | 0.00 | 0.00 | ||
| 20260502000214 | 10 | 135 | 3.2 | 6.4 | 0.00 | 0.00 | 0.00 | ||
| 20260501235813 | 10 | 135 | 3.2 | 8.0 | 0.00 | 0.00 | 0.00 | ||
| 20260501235410 | 10 | 135 | 3.2 | 6.4 | 0.00 | 0.00 | 0.00 | ||
| 20260501235002 | 10 | 135 | 3.2 | 6.4 | 0.00 | 0.00 | 0.00 | ||
| 20260501234600 | 10 | 135 | 3.2 | 6.4 | 0.00 | 0.00 | 0.00 | ||
| 20260501234159 | 11 | 135 | 4.8 | 8.0 | 0.00 | 0.00 | 0.00 | ||
| 20260501233757 | 10 | 135 | 3.2 | 4.8 | 0.00 | 0.00 | 0.00 | ||
| 20260501233355 | 11 | 135 | 1.6 | 3.2 | 0.00 | 0.00 | 0.00 | ||
| 20260501232954 | 10 | 135 | 1.6 | 3.2 | 0.00 | 0.00 | 0.00 | ||
| 20260501232552 | 11 | 135 | 3.2 | 6.4 | 0.00 | 0.00 | 0.00 | ||
| 20260501232150 | 11 | 135 | 1.6 | 6.4 | 0.00 | 0.00 | 0.00 | ||
| 20260501231749 | 11 | 135 | 3.2 | 8.0 | 0.00 | 0.00 | 0.00 | ||
| 20260501231347 | 11 | 135 | 1.6 | 4.8 | 0.00 | 0.00 | 0.00 | ||
| 20260501230939 | 11 | 135 | 1.6 | 4.8 | 0.00 | 0.00 | 0.00 | ||
| 20260501230536 | 11 | 157 | 0.0 | 1.6 | 0.00 | 0.00 | 0.00 | ||
| 20260501230135 | 11 | 157 | 0.0 | 0.0 | 0.00 | 0.00 | 0.00 | ||
| 20260501225734 | 11 | 157 | 0.0 | 3.2 | 0.00 | 0.00 | 0.00 | ||
| 20260501225332 | 11 | 157 | 1.6 | 4.8 | 0.00 | 0.00 | 0.00 | ||
| 20260501224931 | 11 | 157 | 1.6 | 3.2 | 0.00 | 0.00 | 0.00 | ||
| 20260501224528 | 11 | 157 | 1.6 | 3.2 | 0.00 | 0.00 | 0.00 | ||
| 20260501224127 | 11 | 157 | 1.6 | 3.2 | 0.00 | 0.00 | 0.00 | ||
| 20260501223726 | 11 | 157 | 0.0 | 3.2 | 0.00 | 0.00 | 0.00 | ||
| 20260501223325 | 11 | 157 | 1.6 | 6.4 | 0.00 | 0.00 | 0.00 | ||
| 20260501222915 | 12 | 157 | 1.6 | 4.8 | 0.00 | 0.00 | 0.00 | ||
| 20260501222514 | 11 | 157 | 1.6 | 6.4 | 0.00 | 0.00 | 0.00 | ||
| 20260501222113 | 11 | 157 | 0.0 | 0.0 | 0.00 | 0.00 | 0.00 | ||
| 20260501221712 | 12 | 157 | 1.6 | 3.2 | 0.00 | 0.00 | 0.00 | ||
| 20260501221309 | 12 | 98 | 3.2 | 6.4 | 0.00 | 0.00 | 0.00 | ||
| 20260501220908 | 12 | 21 | 3.2 | 4.8 | 0.00 | 0.00 | 0.00 |